Simultaneous Nadir Overpasses (SNOs) Predictions

Prediction of SNOs between GOES-15 and METOP-C Satellite Orbit:

Table of predicted SNOs for the next 14.0 days since TLE Epoch: 8/20/2022
Index Date Time (GOES-15) GOES-15 Lat,Lon METOP-C Lat,Lon Distance(km) Time Diff (sec)
1 08/20/2022 17:47:09 -0.08,-128.10 -1.01,-123.99 468.61 80
2 08/22/2022 06:03:29 0.12,-128.00 0.01,-128.59 66.41 80
3 08/24/2022 18:01:41 -0.13,-128.06 -0.13,-128.16 11.65 80
4 08/27/2022 06:02:39 0.15,-127.95 0.21,-127.76 22.11 80
5 08/28/2022 18:18:51 -0.19,-128.00 0.79,-132.32 492.72 80
6 08/29/2022 18:00:50 -0.17,-127.99 -0.30,-127.32 75.80 80
7 08/31/2022 06:17:10 0.20,-127.90 -0.72,-131.92 458.86 80
8 09/01/2022 05:59:09 0.18,-127.88 0.37,-126.92 108.76 80
9 09/02/2022 18:15:20 -0.21,-127.92 0.61,-131.49 407.66 80
